TimeCDT,TemperatureF,Dew PointF,Humidity,Sea Level PressureIn,VisibilityMPH,Wind Direction,Wind SpeedMPH,Gust SpeedMPH,PrecipitationIn,Events,Conditions,WindDirDegrees,DateUTC
12:07 AM,55.4,55.4,100,29.80,4.0,SW,11.5,-,N/A,Rain,Rain,220,2013-03-11 05:07:00
12:09 AM,55.4,55.4,100,29.80,4.0,SSW,13.8,-,N/A,Rain,Rain,210,2013-03-11 05:09:00
12:17 AM,55.4,55.4,100,29.81,6.0,SW,15.0,-,N/A,Rain,Rain,220,2013-03-11 05:17:00
12:55 AM,54.3,54.3,100,29.79,6.0,SW,13.8,19.6,0.19,Rain,Rain,220,2013-03-11 05:55:00
1:02 AM,53.6,53.6,100,29.79,6.0,SW,15.0,19.6,N/A,Rain,Light Rain,220,2013-03-11 06:02:00
1:23 AM,53.6,53.6,100,29.80,4.0,SW,11.5,-,N/A,Rain,Heavy Rain,220,2013-03-11 06:23:00
1:25 AM,53.6,53.6,100,29.80,3.0,SW,12.7,-,N/A,Rain,Heavy Rain,220,2013-03-11 06:25:00
1:53 AM,53.6,53.6,100,29.81,5.0,SW,11.5,-,N/A,Rain,Light Rain,220,2013-03-11 06:53:00
1:55 AM,52.7,52.7,100,29.82,4.0,SW,12.7,-,0.19,Rain,Light Rain,220,2013-03-11 06:55:00
2:04 AM,51.8,51.8,100,29.81,4.0,SSW,10.4,-,N/A,Rain,Light Rain,210,2013-03-11 07:04:00
2:33 AM,51.8,51.8,100,29.80,4.0,SSW,8.1,-,N/A,Rain,Rain,210,2013-03-11 07:33:00
2:46 AM,51.8,51.8,100,29.80,4.0,SSW,11.5,-,N/A,Rain,Light Rain,210,2013-03-11 07:46:00
2:49 AM,51.8,51.8,100,29.81,5.0,SSW,11.5,-,N/A,Rain,Light Rain,210,2013-03-11 07:49:00
2:55 AM,51.6,51.6,100,29.81,5.0,SSW,9.2,-,0.20,Rain,Light Rain,200,2013-03-11 07:55:00
3:19 AM,51.8,51.8,100,29.78,6.0,South,8.1,-,N/A,Rain,Light Rain,170,2013-03-11 08:19:00
3:36 AM,51.8,51.8,100,29.80,4.0,South,10.4,-,N/A,Rain,Rain,190,2013-03-11 08:36:00
3:40 AM,51.8,51.8,100,29.81,4.0,South,8.1,-,N/A,Rain,Rain,180,2013-03-11 08:40:00
3:55 AM,50.7,50.7,100,29.80,4.0,South,8.1,-,0.19,Rain,Rain,180,2013-03-11 08:55:00
3:57 AM,50.0,50.0,100,29.80,4.0,South,8.1,-,N/A,Rain,Rain,180,2013-03-11 08:57:00
4:07 AM,50.0,50.0,100,29.78,5.0,South,8.1,-,N/A,Rain,Rain,180,2013-03-11 09:07:00
4:21 AM,50.0,50.0,100,29.77,4.0,SSE,8.1,-,N/A,Rain,Rain,160,2013-03-11 09:21:00
4:23 AM,50.0,50.0,100,29.77,4.0,SSE,8.1,-,N/A,Rain,Rain,150,2013-03-11 09:23:00
4:24 AM,50.0,50.0,100,29.77,4.0,SSE,8.1,-,N/A,Rain,Rain,160,2013-03-11 09:24:00
4:33 AM,50.0,50.0,100,29.78,4.0,South,6.9,-,N/A,Rain,Heavy Rain,170,2013-03-11 09:33:00
4:37 AM,50.0,50.0,100,29.77,5.0,South,9.2,-,N/A,Rain,Light Rain,170,2013-03-11 09:37:00
4:55 AM,50.4,50.4,100,29.78,5.0,SSW,8.1,-,0.20,Rain,Rain,200,2013-03-11 09:55:00
5:00 AM,50.0,50.0,100,29.78,4.0,SW,9.2,-,N/A,Rain,Rain,220,2013-03-11 10:00:00
5:12 AM,50.0,50.0,100,29.77,4.0,South,6.9,-,N/A,Rain,Light Rain,190,2013-03-11 10:12:00
5:55 AM,50.2,50.2,100,29.79,6.0,South,6.9,-,0.15,Rain,Light Rain,180,2013-03-11 10:55:00
5:57 AM,50.0,50.0,100,29.79,6.0,South,8.1,-,N/A,Rain,Light Rain,190,2013-03-11 10:57:00
6:02 AM,50.0,50.0,100,29.78,9.0,South,8.1,-,N/A,,Overcast,180,2013-03-11 11:02:00
6:07 AM,50.0,50.0,100,29.80,10.0,South,10.4,-,N/A,,Overcast,190,2013-03-11 11:07:00
6:19 AM,50.0,50.0,100,29.80,10.0,West,11.5,-,N/A,,Overcast,260,2013-03-11 11:19:00
6:25 AM,48.2,48.2,100,29.79,10.0,WSW,11.5,-,N/A,,Overcast,250,2013-03-11 11:25:00
6:30 AM,48.2,48.2,100,29.79,10.0,WSW,11.5,-,N/A,,Overcast,240,2013-03-11 11:30:00
6:31 AM,48.2,48.2,100,29.79,10.0,WSW,11.5,-,N/A,,Overcast,240,2013-03-11 11:31:00
6:55 AM,47.1,46.9,99,29.78,10.0,SW,8.1,-,0.01,,Overcast,230,2013-03-11 11:55:00
7:21 AM,46.4,46.4,100,29.79,10.0,WSW,8.1,-,N/A,,Overcast,240,2013-03-11 12:21:00
7:41 AM,46.4,46.4,100,29.78,10.0,SSW,6.9,-,N/A,,Overcast,210,2013-03-11 12:41:00
7:52 AM,46.4,46.4,100,29.79,10.0,SW,9.2,-,N/A,,Overcast,220,2013-03-11 12:52:00
7:55 AM,46.6,46.6,100,29.79,10.0,SW,11.5,-,N/A,,Overcast,230,2013-03-11 12:55:00
8:55 AM,46.8,46.8,100,29.78,10.0,SW,11.5,-,N/A,,Overcast,230,2013-03-11 13:55:00
9:07 AM,48.2,48.2,100,29.80,10.0,WSW,15.0,-,N/A,,Overcast,240,2013-03-11 14:07:00
9:16 AM,48.2,46.4,93,29.80,10.0,West,16.1,-,N/A,,Overcast,260,2013-03-11 14:16:00
9:23 AM,46.4,46.4,100,29.82,10.0,WSW,23.0,-,N/A,,Overcast,250,2013-03-11 14:23:00
9:40 AM,46.4,46.4,100,29.81,10.0,West,18.4,-,N/A,,Overcast,260,2013-03-11 14:40:00
9:55 AM,45.0,43.9,96,29.78,10.0,West,10.4,-,N/A,,Overcast,270,2013-03-11 14:55:00
10:12 AM,44.6,42.8,93,29.82,10.0,WSW,15.0,24.2,N/A,,Overcast,250,2013-03-11 15:12:00
10:14 AM,44.6,42.8,93,29.82,10.0,WSW,16.1,-,N/A,,Overcast,250,2013-03-11 15:14:00
10:26 AM,42.8,41.0,93,29.83,10.0,West,15.0,-,N/A,,Overcast,270,2013-03-11 15:26:00
10:55 AM,43.3,41.5,93,29.83,10.0,West,18.4,23.0,N/A,,Overcast,260,2013-03-11 15:55:00
11:01 AM,42.8,41.0,93,29.83,10.0,WSW,18.4,-,N/A,,Overcast,250,2013-03-11 16:01:00
11:23 AM,42.8,42.8,100,29.82,9.0,West,16.1,-,N/A,,Light Drizzle,260,2013-03-11 16:23:00
11:27 AM,42.8,42.8,100,29.83,6.0,WSW,17.3,-,N/A,,Light Drizzle,250,2013-03-11 16:27:00
11:31 AM,42.8,42.8,100,29.83,5.0,West,19.6,-,N/A,,Light Drizzle,260,2013-03-11 16:31:00
11:36 AM,41.0,41.0,100,29.84,7.0,West,17.3,-,N/A,,Light Drizzle,260,2013-03-11 16:36:00
11:39 AM,41.0,41.0,100,29.84,10.0,West,18.4,25.3,N/A,,Overcast,260,2013-03-11 16:39:00
11:46 AM,41.0,41.0,100,29.83,10.0,West,18.4,25.3,N/A,,Overcast,260,2013-03-11 16:46:00
11:55 AM,41.4,41.0,99,29.84,10.0,WSW,16.1,24.2,0.00,,Overcast,250,2013-03-11 16:55:00
12:04 PM,41.0,41.0,100,29.83,10.0,West,15.0,-,N/A,,Overcast,260,2013-03-11 17:04:00
12:06 PM,41.0,41.0,100,29.84,10.0,West,16.1,-,N/A,,Overcast,260,2013-03-11 17:06:00
12:11 PM,41.0,41.0,100,29.83,10.0,West,13.8,-,N/A,,Light Drizzle,270,2013-03-11 17:11:00
12:22 PM,41.0,41.0,100,29.84,10.0,WSW,17.3,23.0,N/A,,Overcast,250,2013-03-11 17:22:00
12:25 PM,41.0,41.0,100,29.84,10.0,WSW,18.4,24.2,N/A,,Overcast,250,2013-03-11 17:25:00
12:35 PM,41.0,41.0,100,29.84,10.0,West,17.3,-,N/A,,Overcast,260,2013-03-11 17:35:00
12:42 PM,41.0,41.0,100,29.84,10.0,West,15.0,-,N/A,,Overcast,260,2013-03-11 17:42:00
12:51 PM,41.0,39.2,93,29.85,10.0,West,15.0,-,N/A,,Light Drizzle,270,2013-03-11 17:51:00
12:55 PM,40.8,39.9,97,29.85,10.0,West,18.4,24.2,0.00,,Light Drizzle,260,2013-03-11 17:55:00
1:02 PM,41.0,39.2,93,29.86,10.0,West,15.0,24.2,N/A,,Overcast,260,2013-03-11 18:02:00
1:30 PM,41.0,37.4,87,29.84,10.0,WSW,18.4,25.3,N/A,,Overcast,250,2013-03-11 18:30:00
1:34 PM,41.0,39.2,93,29.85,10.0,WSW,20.7,26.5,N/A,,Overcast,250,2013-03-11 18:34:00
1:42 PM,42.8,37.4,81,29.84,10.0,WSW,19.6,26.5,N/A,,Overcast,250,2013-03-11 18:42:00
1:44 PM,42.8,37.4,81,29.84,10.0,WSW,18.4,-,N/A,,Overcast,240,2013-03-11 18:44:00
1:46 PM,42.8,37.4,81,29.84,10.0,WSW,17.3,-,N/A,,Overcast,240,2013-03-11 18:46:00
1:55 PM,42.1,36.9,82,29.83,10.0,WSW,15.0,-,0.00,,Overcast,250,2013-03-11 18:55:00
2:36 PM,42.8,35.6,76,29.83,10.0,WSW,15.0,-,N/A,,Overcast,250,2013-03-11 19:36:00
2:55 PM,43.3,33.8,69,29.83,10.0,West,16.1,-,N/A,,Overcast,260,2013-03-11 19:55:00
3:55 PM,42.6,33.3,69,29.86,10.0,West,18.4,-,N/A,,Overcast,260,2013-03-11 20:55:00
4:45 PM,42.8,33.8,70,29.87,10.0,WSW,17.3,-,N/A,,Overcast,250,2013-03-11 21:45:00
4:51 PM,41.0,33.8,76,29.87,10.0,West,16.1,-,N/A,,Overcast,260,2013-03-11 21:51:00
4:55 PM,41.9,33.3,71,29.87,10.0,West,17.3,-,N/A,,Overcast,260,2013-03-11 21:55:00
5:55 PM,40.8,32.2,71,29.90,10.0,WSW,13.8,-,N/A,,Mostly Cloudy,250,2013-03-11 22:55:00
6:16 PM,41.0,32.0,70,29.92,10.0,West,12.7,-,N/A,,Overcast,260,2013-03-11 23:16:00
6:23 PM,41.0,32.0,70,29.92,10.0,West,13.8,-,N/A,,Overcast,270,2013-03-11 23:23:00
6:32 PM,41.0,32.0,70,29.93,10.0,West,11.5,-,N/A,,Overcast,270,2013-03-11 23:32:00
6:34 PM,41.0,32.0,70,29.93,10.0,West,10.4,-,N/A,,Overcast,260,2013-03-11 23:34:00
6:37 PM,41.0,32.0,70,29.93,10.0,West,9.2,-,N/A,,Overcast,270,2013-03-11 23:37:00
6:55 PM,40.1,32.4,74,29.94,10.0,West,8.1,-,N/A,,Overcast,260,2013-03-11 23:55:00
6:57 PM,39.2,32.0,75,29.94,10.0,West,10.4,-,N/A,,Overcast,270,2013-03-11 23:57:00
7:55 PM,39.6,31.3,72,29.96,10.0,West,9.2,-,N/A,,Overcast,260,2013-03-12 00:55:00
8:55 PM,39.4,31.8,74,29.98,10.0,West,9.2,-,N/A,,Overcast,260,2013-03-12 01:55:00
9:55 PM,39.0,32.4,77,29.99,10.0,West,6.9,-,N/A,,Overcast,260,2013-03-12 02:55:00
10:55 PM,38.7,32.5,79,30.01,10.0,West,6.9,-,N/A,,Overcast,280,2013-03-12 03:55:00
11:55 PM,38.3,31.1,75,30.01,10.0,West,6.9,-,N/A,,Overcast,270,2013-03-12 04:55:00